Starlink 11603

operational
NORAD ID: 63671 Int'l Des: 2025-085 Owner: SPXS Country: US Constellation: starlink
LEOCIRCULAR

About Starlink 11603

Description loading...

Live Position

Loading 3D Globe...

Upcoming Passes

Altitude History

Altitude vs Time

uPlot chart will show altitude changes over time

Two-Line Element Set

1 63671U 25085H 25351.24051329 .00214461 00000-0 16294-2 0 9997
2 63671 43.0008 55.4885 0003897 289.7135 70.3312 15.70873609 37278
Epoch: Dec 17, 2025 • Age: 14 hours

Current Status

Altitude 361.1 km
Velocity 7.70 km/s
Sub-Earth Point 41.94°N, 132.83°E
Launch Date Apr 28, 2025
Age 0.6 years
Type internet

Technical Details

Classification Payload
Mass 960.00 kg
Dry Mass 910.00 kg
Total Mass 960.00 kg
Length 0.30 m
Diameter 4.10 m
Span 29.00 m
Shape Box + pan
Manufacturer SPXS
Bus Type Starlink V2MD
Phase Status In Orbit
Owner/State SPXS/US

Large Constellations

Loading constellations...